Location: Newark
(13.2833°S, 176.1833°W)
Time: 11:34:13
(UTC+00:00)

Hubble Space Telescope - Pass Details

Date: 24 November 2019
Orbit: 536 x 540 km, 28.5° (Epoch: 10 December)

Event Time Altitude Azimuth Distance (km) Brightness Sun altitude
Exits shadow 14:43:15 18° 157° (SSE) 1,349 3.3 -32.0°
Drops below altitude 10° 14:44:45 10° 141° (SE) 1,794 4.2 -31.7°
Sets 14:47:16 0° 129° (SE) 2,687 5.5 -31.2°
